Location: Newark
(45.2500°N, 7.5833°E)
Time: 12:13:23
(UTC+00:00)

NUDT-PHONESAT - Pass Details

Date: 21 February 2020
Orbit: 487 x 502 km, 97.4° (Epoch: 04 April)

Event Time Altitude Azimuth Distance (km) Brightness Sun altitude
Rises 18:11:09 0° 206° (SSW) 2,545 ? -12.4°
Reaches altitude 10° 18:13:50 10° 229° (SW) 1,671 ? -12.8°
Maximum altitude 18:16:06 16° 268° (W) 1,351 ? -13.2°
Drops below altitude 10° 18:18:23 10° 307° (NW) 1,682 ? -13.6°
Sets 18:21:08 0° 330° (NNW) 2,572 ? -14.1°
